Location: Waldport
(44.4270°N, 124.0680°W)
Time: 05:06:37
(UTC-07:00)

Meteor 1-26 Rocket - Visible Passes

Search period start: 23 August 2017 00:00
Search period end: 02 September 2017 00:00
Orbit: 832 x 903 km, 81.3° (Epoch: 23 August)

Date Brightness Start Highest point End Pass type
(mag) Time Alt. Az. Time Alt. Az. Time Alt. Az.
23 Aug 5.8 05:55:56 10° SSE 06:01:05 39° E 06:06:21 10° NNE visible
24 Aug 5.8 05:48:57 10° SSE 05:54:07 40° E 05:59:25 10° NNE visible
25 Aug 5.7 05:41:57 10° SSE 05:47:10 41° E 05:52:29 10° NNE visible
26 Aug 5.6 05:34:58 10° SSE 05:40:12 42° E 05:45:33 10° NNE visible
27 Aug 5.6 05:28:00 10° SSE 05:33:15 42° E 05:38:37 10° NNE visible
28 Aug 5.5 05:21:01 10° SSE 05:26:17 43° E 05:31:42 10° NNE visible
29 Aug 5.5 05:14:02 10° SSE 05:19:20 44° E 05:24:46 10° NNE visible
30 Aug 5.4 05:07:03 10° SSE 05:12:22 44° E 05:17:49 10° NNE visible
31 Aug 5.3 05:00:04 10° SSE 05:05:25 45° E 05:10:54 10° NNE visible
01 Sep 5.3 04:53:06 10° SSE 04:58:28 46° E 05:03:58 10° NNE visible
